Voltar ao catálogo

STARLINK-32291

AtivoComunicaçõesVLEO
NORAD 62442·PAYLOAD·🇺🇸 United States

Lançado Dec 29, 2024 de Vandenberg Space Force Base

Loading…

Próximas Passagens (próximas 24 horas)

TLE

AtualizadoSource: CelesTrak SupGP

Época: Sep 15, 2026, 03:42 UTC

1 62442C 24251L   26258.15465278  .00003944  00000+0  11654-3 0  2580
2 62442  53.1587 174.6170 0001310  86.4962 338.1655 15.34383841    17

Acompanhe STARLINK-32291 em tempo real com AllMySat

Download on the App Store